DEIMOS 1

Satellite information

Favourite Embed

Satellite Type and Status

PAYLOADIN ORBIT

Key statistics

Satellite DEIMOS 1 at a glance.

Uptime

5762

Days in orbit

Revolutions

≈ 14.7

Per day

Orbit

SSO

Sun Synchronous Orbit

Inclination

97.7

Latest

Satellite identification and parameters

Extended collection of information and parameters for DEIMOS 1.

Object identification

Identified? True

Debris? False

Object name: DEIMOS 1

International designator: 2009-041A

Object number (NORAD): 35681

Object ID (CCSDS): 35681

Country: SPAIN (SPN)

Current information (Y/N): Y

RCS size: MEDIUM

Orbital parameters

Period: 97.657 minutes

Inclination: 97.6984 deg

SMA: 7024.711 km

Apoapsis: 648.454 km

Periapsis: 644.698 km

RAAN: 299.0157 deg

Eccentricy: 0.0002674

Argument of periapsis: 77.2415 deg

Mean anomaly: 282.9093 deg

Mean motion: 14.74551898 rev/day

Mean motion (dot): 0.00000808 rev/day2

B* drag term: 0.00012847 1/REarth

Two-line elements (TLE)

Creation date: May 8, 2025, 3:01 a.m.

Reference frame: TEME

Reference center: EARTH

Epoch: May 7, 2025, 9:29 p.m. UTC

TLE line 0: 0 DEIMOS 1

TLE line 1: 1 35681U 09041A 25127.89576278 .00000808 00000-0 12847-3 0 9997

TLE line 2: 2 35681 97.6984 299.0157 0002674 77.2415 282.9093 14.74551898847145

Live tracking on map

Real-time ground track for satellite DEIMOS 1.

In-orbit conjunctions

There are no conjunctions computed for DEIMOS 1, at the moment. Check back to stay up to date, as we update our databases every day.

Go to all conjunctions

Associated space launch

Emirati Earth observation satellite. Launched with 5 secondary payloads.

DEIMOS 1 was lifted into orbit during the mission ‘Dnepr | DubaiSat 1’, on board a Dnepr space rocket.

The launch took place on July 29, 2009, 6:46 p.m. from 109/95.

For more information about the launch, click the button.

Launch to space Dnepr | DubaiSat 1
Dnepr | DubaiSat 1

Agency: N/A

Status: Launch Successful

Launch date: July 29, 2009, 6:46 p.m. UTC

Rocket: Dnepr

Launch pad: 109/95

Location: Baikonur Cosmodrome, Republic of Kazakhstan

...

Latest news about this satellite

There are no fresh news available about this satellite. Check back as we update our databases every day.


Newsletter sign-up

Weekly statistics, charts and insights to help you stay on top of the space industry.